Terminal Aerodrome Forecast
Issued by NWS Buffalo, NY

Home | Current Version | Previous Version | Text Only | Print | Product List | Glossary On
Versions: 1 2 3 4 5 6 7 8 9 10 11 12 13 14 15 16 17 18 19 20 21 22 23 24 25 26
000
FTUS41 KBUF 241135
TAFBUF
TAF
KBUF 241135Z 2412/2512 25007KT P6SM FEW070
     FM241700 25014G20KT P6SM FEW060 SCT250
     FM242000 25014G26KT P6SM BKN050
     FM242300 24009KT P6SM BKN060
     FM250500 23007KT P6SM FEW060 SCT250=

USA.gov is the U.S. government's official web portal to all federal, state and local government web resources and services.